パンスターズ彗星

364P/PanSTARRS (2018)

English version
Home page
Updated on July 30, 2018

---------------------------------------------------------------------

・ プロフィール

符号 364P/2018 A2
検出日 2018年1月12日、1月16日
検出光度 20.6等、20.0等
検出者 D. C. Fuls (Mount Lemmon), Erwin Schwab (Egelsbach, Germany)

・ 写真集

・ 軌道要素

Epoch 2018 June 11.0 TT = JDT 2458280.5
T 2018 June 24.36597 TT                                 MPCW
q   0.7978532            (2000.0)            P               Q
n   0.20191332     Peri.  211.92768     -0.21380910     +0.96496993
a   2.8775711      Node    46.22834     -0.84612862     -0.10514745
e   0.7227338      Incl.   12.15537     -0.48821310     -0.24036858
P   4.88
From 269 observations 2013 Feb. 1-2018 Mar. 24, mean residual 0".5.

・ 星図

・ 光度変化

        H = 16.5  G = 0.15                       [   ,-63]  (              〜2018年 4月22日)
        m1 = 16.0 + 5 logΔ + 25.0 log r(t - 5)  [-63, 68]  (2018年 4月22日〜2018年 8月31日)
        H = 16.5  G = 0.15                       [ 68,   ]  (2018年 8月31日〜              )

---------------------------------------------------------------------

軌道要素はM.P.E.C. 2018-F152に掲載されたものです。
星図はステラナビゲータ Ver.8 (アストロアーツ) で作成したものです。
光度グラフはComet for Windowsで作成したものです。

---------------------------------------------------------------------

Copyright(C) Seiichi Yoshida (comet@aerith.net). All rights reserved.